Current Weather Conditions: station 63101

sailwx.info

Wind from 190 at 19 knots

Wave height 2.0 meters (6 feet), 6 second period

Air temperature 5.7° C
Dewpoint 1.5° C

Last reported at 2018-Feb-22 11:00 UTC.
Time now 2018-Feb-22 12:42 UTC

Location: N 61°12' E 000°54'.
View on Google Maps.

See reports from other nearby stations

  
Tides and Currents Weather Stations Pressure Air Temp Water Temp Dewpoint Dewpoint Depression Visibility Wind Speed Wind Dir Waves Ship Positions
date/time (UTC)wind fromknots sea level pressurealtimeterstation pressurevisibilityair tempwater tempwave heightnotes
2018-Feb-22 11:00 190 19 5.7 2.0
2018-Feb-22 10:00 180 17 6.0 1.8
2018-Feb-22 09:00 180 15 6.0 1.9
2018-Feb-22 08:00 180 14 5.6 1.8
2018-Feb-22 07:00 180 14 5.5 2.0
2018-Feb-22 06:00 180 14 5.6 1.9
2018-Feb-22 05:00 180 13 5.5 1.9
2018-Feb-22 04:00 180 13 5.6 2.3
2018-Feb-22 03:00 180 13 5.5 2.2
2018-Feb-22 02:00 190 11 5.4 2.6
2018-Feb-22 01:00 150 8 5.1 2.4
2018-Feb-22 00:00 180 8 5.5 2.5
2018-Feb-21 23:00 180 8 5.5 2.6
2018-Feb-21 22:00 170 7 5.5 2.5
2018-Feb-21 21:00 180 6 5.5 2.9
2018-Feb-21 20:00 190 4 5.5 2.7
2018-Feb-21 19:00 210 5 5.5 2.7
2018-Feb-21 18:00 220 4 5.8 2.8
2018-Feb-21 17:00 240 2 6.3 3.1
2018-Feb-21 16:00 260 2 7.8 3.4
2018-Feb-21 15:00 270 5 8.4 3.1
2018-Feb-21 14:00 300 4 10.7 3.6
2018-Feb-21 13:00 310 5 10.3 3.4
2018-Feb-21 12:00 320 6 8.6 3.3
2018-Feb-21 11:00 320 6 10.0 3.3
2018-Feb-21 10:00 330 8 8.6 3.7
2018-Feb-21 09:00 320 9 7.0 3.3
2018-Feb-21 08:00 320 11 6.1 3.7
2018-Feb-21 07:00 330 11 6.0 3.5
2018-Feb-21 06:00 330 12 6.1 3.5
2018-Feb-21 05:00 330 12 6.2 3.8
2018-Feb-21 04:00 310 11 5.8 3.5
2018-Feb-21 03:00 310 8 5.8 3.6
2018-Feb-21 02:00 310 14 6.0 3.6
2018-Feb-21 01:00 320 14 6.3 3.6
2018-Feb-21 00:00 320 17 6.3 3.6
2018-Feb-20 23:00 320 14 6.2 3.9
2018-Feb-20 22:00 300 11 5.8 3.8
2018-Feb-20 21:00 320 14 6.4 3.9
2018-Feb-20 20:00 310 14 6.8 3.7
2018-Feb-20 19:00 300 15 6.6 3.7
2018-Feb-20 18:00 300 18 7.1 3.5
2018-Feb-20 17:00 300 14 7.3 3.9
2018-Feb-20 16:00 260 9 7.3 3.7
2018-Feb-20 15:00 240 9 6.9 3.7
2018-Feb-20 14:00 230 14 6.1 3.8
2018-Feb-20 13:00 220 17 5.5 3.8
2018-Feb-20 12:00 200 20 4.7 3.6